User: anonymous   Login
Location: Unspecified
(0.0000°N, 0.0000°E)
Time: 22:20:42
(UTC+00:00)
Language:

NNS O-2 - Orbit

View from above orbital plane
View from above orbital plane
View from above satellite
View from above satellite

Ground track
Ground track

The orbit data is extracted from the following two-line orbital elements,

1   965U 64083D   17326.70081437 +.00000048 +00000-0 +54148-4 0  9998
2   965 090.0120 191.9075 0042182 064.7960 000.4346 13.56709845619499
Epoch (UTC): 22 November 2017 16:49:10
Eccentricity: 0.0042182
inclination: 90.0120°
perigee height: 1016 km
apogee height: 1079 km
right ascension of ascending node: 191.9075°
argument of perigee: 64.7960°
revolutions per day: 13.56709845
mean anomaly at epoch: 0.4346°
orbit number at epoch: 61949

The dashed part of the orbit path shows where the satellite is in the earth's shadow,  

DLR